Vorticity
2 9 4 -2 -4 -2 -5 7 8 5 4 5 5 5 5 5 5 5 4 5 5 3 4 4 5 5 5 4 5 6 6 7 6
3 8 -1 -3 -2 -2 -1 5 8 6 5 5 5 5 4 5 5 6 6 6 6 5 5 5 6 6 5 6 6 7 6 6 5
9 6 0 -3 2 2 5 10 8 8 5 5 5 4 5 6 6 9 13 13 8 7 7 7 6 5 6 6 7 6 5 5 5
10 -4 -3 1 1 2 8 7 7 8 6 5 5 4 5 7 7 6 15 23 9 8 6 6 5 6 6 7 6 5 5 5 5
10 -2 -11 2 5 0 -2 11 4 7 7 5 5 5 5 6 6 7 5 7 6 6 6 6 6 7 6 6 5 5 5 4 4
2 1 10 -1 3 3 -0 2 6 8 7 6 5 5 5 6 7 0 5 9 7 5 5 5 6 6 5 5 4 4 4 4 4
6 5 -7 -4 1 13 12 7 3 8 8 8 6 4 5 6 8 8 -3 4 7 5 5 5 6 6 5 4 4 4 4 5 4
2 -8 5 2 16 10 3 11 12 7 8 6 6 5 8 9 9 9 4 1 6 5 5 5 6 5 4 4 4 4 4 4 4
7 8 1 8 -8 -1 7 8 9 11 10 7 6 6 7 7 9 9 6 2 7 5 5 5 5 4 5 4 4 4 4 4 4
6 4 3 6 5 2 3 5 6 8 11 9 7 5 5 6 6 6 8 7 5 6 5 5 5 5 4 4 4 4 4 4 4
9 7 5 4 -1 5 4 7 9 8 7 4 5 5 5 6 6 8 7 7 6 6 6 5 5 5 4 4 4 5 4 4 4
13 12 12 7 5 1 4 6 4 3 5 4 5 4 6 5 9 8 7 6 6 6 6 6 5 5 4 4 5 5 4 4 4
17 15 13 12 15 15 14 11 3 4 6 4 8 5 5 5 8 9 9 7 5 5 6 5 6 5 5 5 4 4 4 4 4
10 8 10 10 10 9 11 12 9 7 10 9 8 6 3 6 6 7 6 8 8 7 7 6 5 5 5 5 5 5 4 4 4
9 10 9 8 9 14 18 8 7 9 10 6 8 -0 9 5 5 6 5 5 4 5 6 7 6 6 6 6 6 5 5 4 4
3 9 9 9 11 18 12 1 2 11 -1 11 14 16 14 7 6 6 6 6 7 6 7 6 6 7 7 6 7 6 6 5 4
9 11 9 10 13 16 4 9 7 5 1 8 8 7 11 7 7 5 6 6 5 6 7 8 8 7 6 6 8 7 6 6 5
12 17 12 14 13 11 7 3 -0 21 14 -8 1 6 17 20 6 7 7 6 6 6 7 7 9 8 7 8 7 7 6 6 4
10 12 8 14 7 14 12 15 -27 7 -2 -1 11 10 16 -2 -5 9 8 12 7 7 6 5 6 7 7 8 11 11 7 6 5
1 -0 13 29 11 12 12 -0 5 16 -20 13 20 34 13 -3 13 -0 -5 2 14 12 9 8 5 3 6 7 8 10 7 6 5
Height
3163 3164 3165 3165 3167 3169 3171 3173 3174 3175 3176 3176 3177 3178 3178 3179 3181 3182 3183 3184 3185 3187 3188 3188 3189 3190 3191 3192 3192 3193 3194 3194 3195
3163 3165 3165 3166 3167 3169 3170 3172 3173 3174 3176 3176 3177 3178 3178 3179 3180 3181 3182 3184 3185 3186 3187 3188 3189 3190 3192 3193 3193 3193 3194 3195 3195
3162 3164 3165 3166 3166 3168 3169 3170 3172 3173 3175 3176 3177 3177 3178 3179 3179 3180 3181 3182 3184 3185 3187 3188 3189 3190 3191 3192 3193 3194 3195 3196 3196
3161 3163 3164 3165 3166 3167 3167 3169 3170 3171 3173 3175 3176 3176 3177 3178 3178 3179 3180 3181 3183 3185 3186 3188 3188 3190 3190 3192 3194 3195 3195 3196 3196
3158 3159 3161 3163 3164 3165 3166 3167 3168 3169 3170 3172 3174 3175 3176 3177 3178 3178 3180 3182 3183 3185 3186 3187 3187 3188 3190 3191 3193 3194 3195 3196 3197
3156 3156 3157 3160 3162 3163 3164 3166 3166 3167 3168 3170 3172 3174 3175 3176 3178 3178 3180 3182 3182 3184 3185 3186 3188 3188 3189 3191 3192 3193 3194 3196 3197
3152 3154 3156 3158 3159 3160 3161 3162 3164 3165 3167 3168 3170 3171 3172 3174 3176 3177 3179 3181 3181 3182 3183 3185 3187 3188 3189 3190 3191 3192 3193 3195 3196
3149 3150 3152 3153 3154 3156 3158 3160 3161 3162 3163 3166 3167 3169 3170 3172 3173 3175 3177 3179 3179 3180 3181 3183 3186 3187 3188 3189 3190 3191 3192 3194 3195
3145 3147 3148 3149 3151 3153 3155 3156 3158 3158 3160 3162 3164 3165 3167 3170 3171 3173 3174 3176 3177 3178 3180 3181 3183 3185 3187 3188 3189 3190 3191 3192 3193
3139 3141 3144 3145 3147 3149 3151 3153 3154 3156 3157 3158 3161 3162 3164 3166 3169 3170 3172 3173 3174 3176 3178 3179 3181 3183 3184 3186 3187 3188 3189 3190 3191
3134 3136 3138 3140 3142 3145 3147 3150 3150 3152 3154 3155 3157 3160 3161 3163 3165 3166 3168 3170 3171 3173 3175 3177 3178 3180 3181 3182 3184 3185 3186 3188 3189
3127 3129 3132 3135 3137 3139 3142 3144 3146 3148 3150 3152 3154 3156 3158 3160 3162 3163 3165 3167 3168 3170 3172 3173 3175 3177 3178 3180 3181 3182 3183 3184 3185
3121 3124 3127 3129 3131 3134 3135 3138 3140 3143 3145 3148 3150 3152 3154 3156 3159 3160 3161 3163 3165 3166 3168 3169 3171 3173 3174 3176 3177 3178 3179 3181 3182
3117 3120 3122 3123 3126 3128 3130 3132 3134 3137 3140 3143 3145 3147 3149 3151 3153 3156 3157 3159 3161 3163 3165 3166 3167 3168 3170 3171 3173 3174 3175 3176 3177
3113 3114 3116 3118 3120 3123 3126 3128 3130 3134 3136 3137 3139 3141 3144 3146 3148 3150 3152 3154 3156 3157 3159 3161 3162 3164 3165 3166 3168 3169 3170 3171 3172
3107 3109 3110 3113 3115 3118 3123 3126 3127 3129 3132 3133 3134 3136 3137 3140 3143 3145 3147 3148 3150 3152 3153 3154 3156 3157 3159 3161 3163 3164 3165 3166 3166
3100 3102 3105 3107 3110 3113 3118 3121 3123 3125 3126 3128 3131 3131 3133 3133 3137 3138 3140 3143 3144 3145 3147 3148 3149 3150 3152 3153 3155 3156 3158 3159 3160
3092 3095 3098 3101 3104 3109 3113 3116 3119 3119 3121 3123 3126 3124 3125 3129 3130 3133 3134 3136 3138 3139 3141 3142 3143 3145 3146 3147 3148 3149 3150 3151 3152
3086 3089 3092 3095 3099 3102 3106 3109 3112 3113 3116 3118 3118 3120 3120 3121 3124 3126 3128 3128 3129 3132 3133 3134 3136 3137 3137 3139 3140 3142 3143 3144 3144
3083 3085 3086 3089 3091 3094 3098 3102 3105 3107 3110 3108 3112 3113 3113 3114 3116 3118 3120 3121 3123 3124 3125 3125 3126 3127 3129 3130 3132 3134 3136 3137 3137